Regional Weather Roundup
Issued by NWS

Home | Current Version | Previous Version | Graphics & Text | Print | Product List | Glossary On
Versions: 1 2 3 4 5 6 7 8 9 10 11 12 13 14 15 16 17 18 19 20 21 22 23 24 25 26 27 28 29 30 31 32 33 34 35 36 37 38 39 40 41 42 43 44 45 46 47 48 49 50
000
ASUS43 KFSD 180402
RWRSD

WEATHER ROUNDUP FOR SOUTH DAKOTA
NATIONAL WEATHER SERVICE SIOUX FALLS SD
1000 PM CST SAT FEB 17 2018

NOTE: "FAIR" INDICATES FEW OR NO CLOUDS BELOW 12,000 FEET WITH NO
SIGNIFICANT WEATHER AND/OR OBSTRUCTIONS TO VISIBILITY.


SDZ001>005-009-010-012>017-180500-
NORTHWEST AND NORTH CENTRAL SOUTH DAKOTA

CITY           SKY/WX    TMP DP  RH WIND       PRES   REMARKS
BUFFALO          N/A     17   8  67 SE13      29.62F WCI   4
FAITH            N/A     15  11  83 SE16      29.76F WCI  -1
MOBRIDGE       CLOUDY    17  11  77 SE7       29.87F WCI   8
$$

SDZ012>016-024>037-041>051-057-063-072>074-180500-
SOUTHWEST AND SOUTH CENTRAL SOUTH DAKOTA

CITY           SKY/WX    TMP DP  RH WIND       PRES   REMARKS
RAPID CTY ARPT CLOUDY    24  22  91 SE6       29.68F WCI  17
PIERRE         CLOUDY    19  14  81 E7        29.88F WCI  10
CUSTER         CLOUDY    25  13  60 SW6       29.62F WCI  18
ELLSWORTH AFB  CLOUDY    25  25 100 SE12      29.67  WCI  14
PHILIP         CLOUDY    24  19  81 E16       29.77F WCI  11
PINE RIDGE     CLOUDY    40  23  50 S20G25    29.68F
SPEARFISH        N/A     19  18  93 CALM      29.59F
WINNER         FAIR      32  25  75 SE18      29.87F WCI  20
$$

SDZ004>011-016>023-039-040-180500-
NORTHEAST SOUTH DAKOTA

CITY           SKY/WX    TMP DP  RH WIND       PRES   REMARKS
ABERDEEN       CLOUDY    19  13  77 CALM      29.97F
WATERTOWN      CLOUDY    17  14  88 S6        29.97F WCI   9
BROOKINGS      CLOUDY    19  16  88 S6          N/A  WCI  11
SISSETON         N/A     13   7  77 SW5       29.99F WCI   5
$$

SDZ017-020-022-023-036>040-048>070-180500-
SOUTHEAST SOUTH DAKOTA

CITY           SKY/WX    TMP DP  RH WIND       PRES   REMARKS
SIOUX FALLS    CLOUDY    16  14  92 NE3       30.03F FOG
HURON          CLOUDY    20  17  88 SE6       29.98F WCI  12
CHAMBERLAIN    CLOUDY    26  25  94 SE10      29.95R WCI  16
MITCHELL       CLOUDY    18  16  92 SE5       30.00F WCI  11
YANKTON        PTCLDY    22  20  92 SE6       30.06S WCI  14
$$

ABBREVIATIONS USED IN REMARKS
   TC - TEMPERATURE IN CELSIUS
  WCI - WIND CHILL INDEX
   HX - HEAT INDEX
  VSB - VISIBILITY





USA.gov is the U.S. government's official web portal to all federal, state and local government web resources and services.